DW6561 Weather Reports


time (UTC)temp
C
wind
direction
speed
KPH
gust
KPH
rain 1hr
cm
rain 24hr
cm
rain mn
cm
humidity
%
barometer
mb
20260504194519 28 298 0.0 4.8 0.00 0.00 0.00 29 1008.7
20260504191504 28 290 0.0 3.2 0.00 0.00 0.00 29 1008.9
20260504190010 27 303 0.0 4.8 0.00 0.00 0.00 29 1009.0
20260504184511 27 352 0.0 4.8 0.00 0.00 0.00 30 1009.0
20260504183020 26 107 0.0 6.4 0.00 0.00 0.00 33 1009.1
20260504181515 26 340 0.0 6.4 0.00 0.00 0.00 32 1009.1
20260504180007 25 315 0.0 4.8 0.00 0.00 0.00 34 1009.1
20260504174516 25 311 0.0 4.8 0.00 0.00 0.00 33 1009.3
20260504173022 25 331 0.0 4.8 0.00 0.00 0.00 35 1009.3
20260504171503 24 298 0.0 3.2 0.00 0.00 0.00 37 1009.3
20260504081526 20 247 0.0 6.4 0.00 0.00 0.00 35 1008.3
20260504050012 22 172 1.6 8.0 0.00 0.00 0.00 30 1008.6
20260504044519 22 159 1.6 6.4 0.00 0.00 0.00 30 1008.5
20260504043005 22 173 3.2 11.3 0.00 0.00 0.00 30 1008.7
20260504041512 22 146 1.6 4.8 0.00 0.00 0.00 30 1008.6
20260504040016 23 134 1.6 8.0 0.00 0.00 0.00 30 1008.6
20260504034531 23 154 1.6 8.0 0.00 0.00 0.00 31 1008.5
20260504033011 24 121 1.6 4.8 0.00 0.00 0.00 30 1008.5
20260504031515 25 149 0.0 3.2 0.00 0.00 0.00 29 1008.5
20260504030006 25 61 0.0 1.6 0.00 0.00 0.00 26 1008.5
20260504024521 26 61 0.0 1.6 0.00 0.00 0.00 27 1008.5
20260504023022 27 61 0.0 0.0 0.00 0.00 0.00 26 1008.6
20260504021515 27 61 0.0 1.6 0.00 0.00 0.00 24 1008.6
20260504020020 27 100 0.0 0.0 0.00 0.00 0.00 24 1008.7
20260504014521 28 100 0.0 3.2 0.00 0.00 0.00 23 1008.9
20260504013012 28 78 0.0 3.2 0.00 0.00 0.00 23 1009.0
20260504011502 28 78 0.0 4.8 0.00 0.00 0.00 22 1009.1
20260504010003 29 86 0.0 3.2 0.00 0.00 0.00 22 1009.4
20260504004507 30 119 0.0 6.4 0.00 0.00 0.00 22 1009.6
20260504003005 30 64 1.6 4.8 0.00 0.00 0.00 20 1009.7
20260504001504 30 314 1.6 6.4 0.00 0.00 0.00 21 1009.8
20260504000004 31 317 0.0 4.8 0.00 0.00 0.00 22 1010.0
20260503234504 31 298 0.0 6.4 0.00 0.00 0.00 20 1010.2
20260503233006 31 352 0.0 4.8 0.00 0.00 0.00 22 1010.4
20260503231508 31 298 1.6 6.4 0.00 0.00 0.00 21 1010.5
20260503230006 31 312 0.0 6.4 0.00 0.00 0.00 23 1010.6
20260503224503 31 293 0.0 3.2 0.00 0.00 0.00 23 1010.8
20260503223004 31 309 1.6 6.4 0.00 0.00 0.00 24 1011.0
20260503221509 31 288 1.6 4.8 0.00 0.00 0.00 23 1011.2
20260503220010 30 322 1.6 6.4 0.00 0.00 0.00 24 1011.4
20260503214510 30 307 1.6 4.8 0.00 0.00 0.00 25 1011.8
20260503213003 30 319 0.0 4.8 0.00 0.00 0.00 23 1011.9
20260503211502 30 323 1.6 6.4 0.00 0.00 0.00 26 1012.0
20260503210009 30 347 0.0 4.8 0.00 0.00 0.00 24 1012.4
20260503204523 29 318 0.0 4.8 0.00 0.00 0.00 32 1012.6
20260503203024 28 101 0.0 4.8 0.00 0.00 0.00 29 1012.7
20260503201507 28 324 0.0 3.2 0.00 0.00 0.00 28 1012.8
20260503200012 28 92 0.0 3.2 0.00 0.00 0.00 28 1013.0